SCP
0 0 0 0 0 0 0 0 0 0 0 0 0 0 0 0 0 0 0 0 0 0 0 0 0 0 0 0 0 0 0 0 0 0 0 0 0 0 0 0 0 0 0 0
0 0 0 0 0 0 0 0 0 0 0 0 0 0 0 0 0 0 0 0 0 0 0 0 0 0 0 0 0 0 0 0 0 0 0 0 0 0 0 0 0 0 0 0
0 0 0 0 0 0 0 0 0 0 0 0 0 0 0 0 0 0 0 0 0 0 0 0 0 0 0 0 0 0 0 0 0 0 0 0 0 0 0 0 0 0 0 0
0 0 0 0 0 0 0 0 0 0 0 0 0 0 0 0 0 0 0 0 0 0 0 0 0 0 0 0 0 0 0 0 0 0 0 0 0 0 0 0 0 0 0 0
0 0 0 0 0 0 0 0 0 0 0 0 0 0 0 0 0 0 0 0 0 0 0 0 0 0 0 0 0 0 0 0 0 0 0 0 0 0 0 0 0 0 0 0
0 0 0 0 0 0 0 0 0 0 0 0 0 0 0 0 0 0 0 0 0 0 0 0 0 0 0 0 0 0 0 0 0 0 0 0 0 0 0 0 0 0 0 0
0 0 0 0 0 0 0 0 0 0 0 0 0 0 0 0 0 0 0 0 0 0 0 0 -0 -0 0 0 0 0 0 0 0 0 0 0 0 0 0 0 0 0 0 0
0 0 0 0 0 0 0 0 0 0 0 0 0 0 0 0 0 0 0 0 0 0 0 -0 -0 -0 0 0 0 0 0 0 0 0 0 0 0 0 0 0 0 0 0 0
0 0 0 0 0 0 0 0 0 0 0 0 0 0 0 0 0 0 0 0 0 0 0 -0 -0 -0 0 0 0 0 0 0 0 0 0 0 0 0 0 0 0 0 0 0
0 0 0 0 0 0 0 0 0 0 0 0 0 0 0 0 0 0 0 0 0 0 0 -0 -0 0 0 0 0 0 0 0 0 0 0 0 0 0 0 0 0 0 0 0
0 0 0 0 0 0 0 0 0 0 0 0 0 0 0 0 0 0 0 0 0 0 0 0 0 0 0 0 0 0 0 0 0 0 0 0 0 0 0 0 0 0 0 0
0 0 0 0 0 0 0 0 0 0 0 0 0 0 0 0 0 0 0 0 0 0 0 0 0 0 -0 0 0 0 0 0 0 0 0 0 0 0 0 0 0 0 0 0
0 0 0 0 0 0 0 0 0 0 0 0 0 0 0 0 0 0 0 0 0 0 0 0 0 0 0 0 0 0 0 0 0 0 0 0 0 0 0 0 0 0 0 0
0 0 0 0 0 0 0 0 0 0 0 0 0 0 0 0 0 0 0 0 0 0 0 0 0 0 0 0 0 0 0 0 0 0 0 0 0 0 0 0 0 0 0 0
0 0 0 0 0 0 0 0 0 0 0 0 0 0 0 0 0 0 0 0 0 0 0 0 0 0 0 0 0 0 0 0 0 0 0 0 0 0 0 0 0 0 0 0
0 0 0 0 0 0 0 0 0 0 0 0 0 0 0 0 0 0 0 0 0 0 0 0 0 0 0 0 0 0 0 0 0 0 0 0 0 0 0 0 0 0 0 0
0 0 0 0 0 0 0 0 0 0 0 0 0 0 0 0 0 0 0 0 0 0 0 0 0 0 0 0 0 0 0 0 0 0 0 0 0 0 0 0 0 0 0 0
0 0 0 0 0 0 0 0 0 0 0 0 0 0 0 0 0 0 0 0 0 0 0 0 0 0 0 0 0 0 0 0 0 0 0 0 0 0 0 0 0 0 0 0
0 0 0 0 0 0 0 0 0 0 0 0 0 0 0 0 0 0 0 0 0 0 0 0 0 0 0 0 0 0 0 0 0 0 0 0 0 0 0 0 0 0 0 0
0 0 0 0 0 0 0 0 0 0 0 0 0 0 0 0 0 0 0 0 0 0 0 0 0 0 0 0 0 0 0 0 0 0 0 0 0 0 0 0 0 0 0 0
0 0 0 0 0 0 0 0 0 0 0 0 0 0 0 0 0 0 0 0 0 0 0 0 0 0 0 0 0 0 0 0 0 0 0 0 0 0 0 0 0 0 0 0
0 0 0 0 0 0 0 0 0 0 0 0 0 0 0 0 0 0 0 0 0 0 0 0 0 0 0 0 0 0 0 0 0 0 0 0 0 0 0 0 0 0 0 0
0 0 0 0 0 0 0 0 0 0 0 0 0 0 0 0 0 0 0 0 0 0 0 0 0 0 0 0 0 0 0 0 0 0 0 0 0 0 0 0 0 0 0 0
0 0 0 0 0 0 0 0 0 0 0 0 0 0 0 0 0 0 0 0 0 0 0 0 0 0 0 0 0 0 0 0 0 0 0 0 0 0 0 0 0 0 0 0
0 0 0 0 0 0 0 0 0 0 0 0 0 0 0 0 0 0 0 0 0 0 0 0 0 0 0 0 0 0 0 0 0 0 0 0 0 0 0 0 0 0 0 0
0 0 0 0 0 0 0 0 0 0 0 0 0 0 0 0 0 0 0 0 0 0 0 0 0 0 0 0 0 0 0 0 0 0 0 0 0 0 0 0 0 0 0 0
0 0 0 0 0 0 0 0 0 0 0 0 0 0 0 0 0 0 0 0 0 0 0 0 0 0 0 0 0 0 0 0 0 0 0 0 0 0 0 0 0 0 0 0
Wind_Speed
13 14 12 12 13 11 12 12 12 13 15 13 9 7 7 6 6 6 6 5 6 5 5 6 6 6 5 5 4 3 3 4 5 6 6 7 8 9 10 10 11 11 12 12
12 13 14 17 16 15 15 15 16 17 18 12 10 8 7 6 6 6 5 5 6 6 6 6 6 6 6 6 5 4 4 4 4 5 4 6 8 8 9 10 10 10 11 12
9 9 10 14 14 16 15 13 13 16 14 8 8 8 6 6 5 5 5 5 6 6 6 6 6 5 6 6 6 5 5 5 4 4 5 5 7 8 9 10 9 10 11 11
6 6 13 10 5 8 11 12 10 9 8 6 7 6 4 4 4 5 6 5 5 5 6 5 6 5 5 6 5 5 5 5 4 4 5 5 6 8 9 8 8 9 10 11
4 7 11 9 7 6 6 8 6 6 6 5 5 6 4 3 3 5 5 5 5 5 6 5 5 5 5 5 5 4 5 5 4 4 5 5 7 7 7 7 8 8 9 10
7 7 8 4 1 0 2 7 3 3 4 5 4 4 4 5 5 5 6 5 5 5 6 6 5 5 4 5 5 5 5 5 5 5 5 6 7 6 5 6 7 7 7 9
11 10 9 6 2 2 4 6 2 2 3 3 3 5 5 6 6 5 6 6 6 6 5 5 5 5 5 5 5 5 5 5 6 6 6 6 5 5 5 6 6 7 8 7
8 10 11 4 3 5 6 2 2 3 3 4 5 6 6 6 6 7 6 6 6 5 6 5 4 4 5 5 5 5 5 5 5 6 5 4 4 5 5 6 7 7 7 6
9 9 5 2 4 4 3 4 4 4 4 5 6 6 7 7 7 6 6 6 5 6 6 5 4 4 5 5 5 5 5 5 5 5 5 4 4 4 5 6 6 6 6 6
8 8 8 7 6 5 6 6 6 5 5 6 7 7 7 7 6 6 6 6 5 5 6 6 4 4 5 5 5 5 5 5 5 5 4 4 3 3 4 5 5 6 6 6
12 10 10 9 8 8 7 6 6 6 6 6 7 8 7 7 6 5 5 5 5 5 5 6 5 4 5 5 5 5 5 5 5 4 4 3 3 3 3 4 5 6 6 6
11 8 8 7 6 7 7 7 6 6 7 6 6 7 7 6 6 5 5 5 5 5 5 5 5 5 4 4 4 5 5 5 4 3 3 3 2 1 2 3 3 5 7 7
12 10 9 9 8 6 6 6 6 6 7 7 6 6 6 6 6 5 6 6 6 6 5 5 5 5 4 4 4 4 5 5 4 3 3 3 2 2 1 1 1 4 6 8
8 7 8 7 7 6 6 6 6 6 6 5 6 6 6 6 6 6 6 6 5 5 5 5 5 5 4 4 4 5 5 5 5 3 3 3 2 2 2 3 2 1 3 7
7 7 7 6 5 5 5 5 5 5 5 5 5 6 6 6 6 6 5 5 5 5 5 5 6 6 4 4 4 4 4 4 4 4 3 3 2 2 2 3 3 2 2 3
4 4 5 5 6 5 5 5 5 5 5 5 6 6 6 6 6 6 5 4 5 6 6 6 6 6 4 4 4 4 4 6 6 4 3 3 2 2 3 3 3 3 4 4
4 5 5 5 5 5 5 4 5 5 5 5 6 5 5 5 5 6 5 5 5 6 6 6 6 5 5 5 5 4 4 5 6 4 4 3 3 3 3 3 3 3 3 5
3 3 3 3 4 5 5 5 5 5 5 5 5 5 5 5 6 6 6 5 5 6 5 5 5 6 5 5 4 4 4 4 4 4 3 3 3 3 3 3 4 4 3 4
1 2 2 3 3 4 4 5 4 4 4 4 5 5 5 6 6 6 6 6 6 7 6 5 8 7 6 6 6 4 4 4 4 4 3 4 4 3 3 4 4 4 4 4
2 2 3 3 3 3 4 4 4 4 4 4 5 5 6 6 6 6 6 6 5 5 6 7 6 6 6 6 7 4 4 4 4 4 3 3 3 3 3 3 3 3 4 4
3 3 3 3 3 3 3 3 4 4 5 5 5 6 6 6 6 6 6 6 5 5 6 8 5 5 5 6 7 4 4 4 4 4 3 3 3 3 3 3 3 3 3 4
2 3 3 3 3 3 3 3 4 5 5 5 5 6 6 6 6 6 6 5 6 8 6 4 5 7 8 8 4 4 4 4 4 3 3 3 3 3 3 3 3 3 4 4
3 3 3 3 3 4 4 4 4 5 5 6 6 6 6 6 5 5 6 4 4 8 6 5 8 11 12 6 4 4 4 4 3 3 3 3 3 3 3 3 3 4 4 4
3 3 3 3 3 4 5 5 5 5 5 5 5 5 5 5 5 4 4 8 10 10 6 8 12 11 10 4 3 3 4 3 3 3 3 2 2 3 3 3 3 3 4 5
3 3 3 3 3 3 4 5 5 5 5 4 4 4 4 3 4 5 4 5 9 10 6 7 11 10 5 3 3 3 3 3 3 2 2 2 2 2 2 3 3 3 4 5
3 3 3 3 3 3 3 3 4 4 4 4 4 3 3 3 4 4 4 5 7 8 6 4 5 5 3 3 3 3 3 3 3 2 2 2 2 2 2 3 3 3 4 5
3 3 3 3 3 2 3 3 3 4 4 4 5 4 4 4 4 4 5 4 5 4 4 4 3 3 3 3 3 3 2 2 2 2 1 1 1 1 2 3 3 3 4 5
Wind_Direction
261 271 272 267 264 253 245 248 256 269 274 278 288 295 301 309 315 322 331 340 340 337 332 329 329 326 319 307 298 283 263 253 251 243 225 212 210 208 208 207 203 197 193 193
267 263 265 266 261 255 251 251 257 267 270 275 284 291 296 306 312 318 326 337 334 331 327 324 325 324 319 310 300 294 278 266 261 255 236 215 208 208 206 205 200 196 194 193
266 274 280 262 249 247 246 243 248 257 265 281 286 288 295 309 312 315 321 329 326 321 320 316 311 307 308 305 304 297 284 274 263 256 248 228 211 203 208 202 198 199 197 194
270 278 248 247 249 246 251 253 249 260 275 280 286 294 295 304 312 320 322 321 316 316 314 307 303 299 299 304 300 294 291 282 269 258 249 242 223 209 210 200 198 201 198 196
246 256 268 267 255 248 257 266 256 262 281 298 311 305 293 309 319 307 305 311 307 305 306 303 305 308 309 306 298 295 295 291 282 264 244 234 227 219 214 199 200 202 197 194
237 248 253 255 307 284 293 271 254 252 275 292 312 294 289 323 322 312 308 311 309 306 308 310 314 316 310 306 300 294 294 293 288 276 259 239 231 222 214 203 202 199 200 197
233 247 260 264 250 122 219 250 314 294 281 287 277 265 289 308 309 305 305 304 304 302 303 304 310 315 304 300 295 293 294 291 287 280 267 250 237 221 205 200 194 195 195 194
214 233 248 239 185 204 231 298 322 307 294 287 285 290 297 299 300 300 300 300 304 305 303 302 305 306 299 299 297 301 300 292 286 283 276 257 236 221 199 191 190 191 187 185
209 225 241 217 229 245 265 277 279 274 280 285 284 285 290 292 292 292 294 296 298 298 299 303 304 300 296 299 306 305 302 293 286 283 276 256 234 219 200 190 190 190 186 185
254 254 263 269 269 262 260 264 267 266 271 275 277 280 283 284 284 289 292 294 293 295 301 306 310 307 303 307 311 305 299 295 290 287 282 262 242 217 201 193 191 189 189 186
255 262 273 266 263 263 265 267 272 272 267 266 271 276 278 280 282 283 288 294 295 292 293 298 305 305 308 312 314 310 304 299 297 289 283 273 255 227 217 213 202 196 194 184
252 253 257 267 272 273 273 271 270 275 276 272 267 270 273 274 275 277 282 285 288 289 289 294 301 301 304 310 307 308 305 301 297 294 288 277 256 265 248 217 212 204 194 187
255 263 265 273 277 277 273 274 274 271 271 275 275 271 270 271 273 273 277 280 281 281 282 287 292 295 298 303 305 299 296 294 293 290 287 277 251 231 243 343 159 181 182 182
258 268 270 271 275 279 277 275 274 273 271 272 277 279 275 276 278 277 275 276 278 283 285 286 288 289 295 298 296 292 292 292 289 278 275 264 247 237 214 203 208 200 184 177
256 258 266 277 281 284 282 277 276 275 277 279 279 279 278 276 276 277 279 283 286 285 285 287 288 291 301 300 294 288 289 289 285 281 276 261 240 235 221 206 202 191 162 159
273 273 274 276 279 284 287 282 277 278 281 283 283 283 283 280 278 281 284 287 285 281 282 283 283 289 299 300 294 289 283 283 284 282 277 266 244 229 221 205 196 192 182 172
259 261 267 274 278 286 292 296 293 289 288 288 292 297 296 293 290 288 288 283 274 274 278 280 284 290 290 289 285 283 282 282 281 274 261 254 244 233 221 208 205 203 192 183
244 253 264 274 282 287 291 292 292 294 293 293 296 295 291 288 287 291 296 298 293 288 285 288 293 294 287 284 282 281 278 272 267 259 258 254 246 231 219 210 204 201 188 176
330 305 299 297 294 290 292 294 297 296 298 300 297 292 288 288 289 292 296 296 290 287 291 298 303 299 291 286 287 278 274 269 266 258 255 257 254 232 216 211 206 201 189 177
348 338 325 315 309 299 296 298 302 302 304 301 297 294 292 292 295 297 295 287 277 277 291 297 297 288 288 286 286 274 269 267 261 255 251 247 244 235 220 210 203 197 188 178
328 323 317 313 313 315 312 313 310 304 306 304 297 293 291 293 295 292 289 287 286 292 297 299 296 289 286 287 287 275 267 266 260 251 247 242 239 233 218 204 196 189 180 169
318 312 309 312 309 307 311 311 301 297 297 296 294 292 292 294 295 291 277 273 288 300 301 293 291 294 298 299 285 274 269 266 261 252 245 236 232 229 219 205 193 184 176 169
304 303 302 303 302 301 303 296 289 287 286 286 284 284 285 288 291 290 292 292 297 304 305 292 296 300 302 299 285 275 271 265 259 250 245 238 232 226 214 204 194 184 176 168
305 305 303 304 304 299 296 296 294 288 282 281 278 276 279 289 290 279 280 298 306 308 302 299 304 305 303 292 286 281 275 267 260 254 249 243 235 223 206 195 190 184 173 164
303 298 296 296 294 290 293 302 303 295 289 285 283 282 278 274 281 292 295 298 305 309 303 304 310 311 306 292 287 285 282 274 267 259 248 239 231 220 206 194 188 179 170 163
299 296 291 283 280 285 289 293 294 295 296 298 301 303 302 297 292 295 299 301 303 308 308 305 307 309 305 302 298 296 289 284 280 270 256 245 229 216 199 184 174 170 162 155
296 293 293 292 291 289 292 292 292 296 299 301 303 306 306 306 304 304 305 307 308 309 308 310 314 316 315 311 309 308 302 294 286 273 262 248 228 207 186 173 164 153 148 146